Location: �clusier
(49.9361°N, 2.7869°E)
Time: 04:34:27
(UTC+00:00)

Cosmos 2263 Rocket - Visible Passes

Search period start: 17 October 2021 00:00
Search period end: 27 October 2021 00:00
Orbit: 825 x 847 km, 71.0° (Epoch: 16 October)

Date Brightness Start Highest point End Pass type
(mag) Time Alt. Az. Time Alt. Az. Time Alt. Az.
17 Oct 2.4 18:46:38 10° NNW 18:52:12 70° WSW 18:57:18 12° SSE visible
17 Oct 4.9 20:33:10 10° WNW 20:35:04 12° W 20:36:59 10° WSW visible
18 Oct 2.3 18:29:50 10° NNW 18:35:25 76° WSW 18:40:58 10° SSE visible
18 Oct 4.9 20:15:57 10° WNW 20:18:21 13° W 20:20:45 10° WSW visible
19 Oct 2.2 18:13:01 10° NNW 18:18:38 81° WSW 18:24:11 10° SSE visible
19 Oct 4.9 19:58:50 10° WNW 20:01:38 14° W 20:04:26 10° SW visible
20 Oct 2.2 17:56:14 10° NNW 18:01:50 87° WSW 18:07:24 10° SSE visible
20 Oct 4.9 19:41:47 10° WNW 19:44:55 15° W 19:48:02 10° SW visible
21 Oct 2.2 17:39:26 10° NNW 17:45:03 88° ENE 17:50:37 10° SSE visible
21 Oct 4.9 19:24:47 10° WNW 19:28:11 17° W 19:31:36 10° SW visible
22 Oct 2.2 17:22:38 10° NNW 17:28:15 83° ENE 17:33:49 10° SSE visible
22 Oct 4.8 19:07:49 10° WNW 19:11:28 18° W 19:15:07 10° SW visible
23 Oct 2.2 17:05:51 10° NNW 17:11:27 77° ENE 17:17:01 10° SSE visible
23 Oct 4.8 18:50:51 10° NW 18:54:44 20° W 18:58:36 10° SW visible
24 Oct 4.7 18:33:56 10° NW 18:38:00 21° W 18:42:04 10° SSW visible
25 Oct 4.7 18:17:01 10° NW 18:21:16 23° WSW 18:25:31 10° SSW visible
26 Oct 4.6 18:00:07 10° NW 18:04:32 25° WSW 18:08:56 10° SSW visible
